Simultaneous Nadir Overpasses (SNOs) Predictions

Prediction of SNOs between METOP-B and TERRA Satellite Orbit:

Table of predicted SNOs for the next 14.0 days since TLE Epoch: 11/24/2018
Index Date (METOP-B) Time (METOP-B) Lat,Lon (METOP-B) SZA (METOP-B ) Date (TERRA) Time (TERRA) Lat,Lon (TERRA) SZA (TERRA ) Distance(km) Time Diff (sec)
1 11/26/2018 05:26:23 -81.28, -34.76 74.85 11/26/2018 05:26:56 -81.28, -34.72 74.82 0.84 33
2 11/26/2018 06:17:03 81.28, 133.03 105.22 11/26/2018 06:16:22 81.29, 133.03 105.21 0.59 41
3 11/29/2018 01:00:48 -81.28, 31.76 74.35 11/29/2018 01:01:08 -81.28, 31.81 74.33 1.14 20
4 11/29/2018 01:51:28 81.28,-160.47 105.71 11/29/2018 01:50:34 81.29,-160.46 105.69 0.82 54
5 12/01/2018 20:35:13 -81.27, 97.87 73.97 12/01/2018 20:35:20 -81.27, 97.95 73.96 1.42 7
6 12/01/2018 21:25:52 81.28, -93.99 106.14 12/01/2018 21:24:45 81.29, -93.97 106.12 1.08 67
7 12/04/2018 15:18:58 81.27, -3.24 106.38 12/04/2018 15:20:05 81.27, -3.14 106.42 1.69 67
8 12/04/2018 16:09:38 -81.27, 164.35 73.59 12/04/2018 16:09:32 -81.27, 164.45 73.59 1.70 6
9 12/07/2018 10:53:23 81.27, 63.20 106.69 12/07/2018 10:54:17 81.27, 63.33 106.73 2.37 54




NCC Satellite Simultaneous Nadir Overpasses (SNOs) Prediction Service
